User: anonymous   Login
Location: Bittkow
(50.3000°N, 19.0000°E)
Time: 19:13:41
(UTC+00:00)
Language:

Cosmos 990 Rocket - Orbit

View from above orbital plane
View from above orbital plane
View from above satellite
View from above satellite

Ground track
Ground track

The orbit data is extracted from the following two-line orbital elements,

1 10677U 78019B   20330.88868104  .00000033  00000-0  18918-4 0  9994
2 10677  74.0364 137.4898 0016337 262.9304  96.9993 14.40161255243545
Epoch (UTC): 25 November 2020 21:19:42
Eccentricity: 0.0016337
inclination: 74.0364°
perigee height: 746 km
apogee height: 769 km
right ascension of ascending node: 137.4898°
argument of perigee: 262.9304°
revolutions per day: 14.40161255
mean anomaly at epoch: 96.9993°
orbit number at epoch: 24354

The dashed part of the orbit path shows where the satellite is in the earth's shadow,  

DLR